Year,Month,Day,Hour,Minute,Value (Times are PST for windspeed in km/hr)
2010,05,04,00,00,6.10
2010,05,04,00,01,1.60
2010,05,04,00,02,1.60
2010,05,04,00,03,1.60
2010,05,04,00,04,1.60
2010,05,04,00,05,1.60
2010,05,04,00,06,3.10
2010,05,04,00,07,6.80
2010,05,04,00,08,6.40
2010,05,04,00,09,5.80
2010,05,04,00,10,6.10
2010,05,04,00,11,2.50
2010,05,04,00,12,6.90
2010,05,04,00,13,6.70
2010,05,04,00,14,1.90
2010,05,04,00,15,1.70
2010,05,04,00,16,3.10
2010,05,04,00,17,5.90
2010,05,04,00,18,4.90
2010,05,04,00,19,1.20
2010,05,04,00,20,6.70
2010,05,04,00,21,2.90
2010,05,04,00,22,10.00
2010,05,04,00,23,2.00
2010,05,04,00,24,7.70
2010,05,04,00,25,6.00
2010,05,04,00,26,5.80
2010,05,04,00,27,2.10
2010,05,04,00,28,3.70
2010,05,04,00,29,4.70
2010,05,04,00,30,4.60
2010,05,04,00,31,6.20
2010,05,04,00,32,9.30
2010,05,04,00,33,3.40
2010,05,04,00,34,2.10
2010,05,04,00,35,3.30
2010,05,04,00,36,2.00
2010,05,04,00,37,2.70
2010,05,04,00,38,0.20
2010,05,04,00,39,5.30
2010,05,04,00,40,8.30
2010,05,04,00,41,2.80
2010,05,04,00,42,1.80
2010,05,04,00,43,1.00
2010,05,04,00,44,5.30
2010,05,04,00,45,12.70
2010,05,04,00,46,6.30
2010,05,04,00,47,5.30
2010,05,04,00,48,1.70
2010,05,04,00,49,7.50
2010,05,04,00,50,11.60
2010,05,04,00,51,7.40
2010,05,04,00,52,3.50
2010,05,04,00,53,7.40
2010,05,04,00,54,7.60
2010,05,04,00,55,1.60
2010,05,04,00,56,3.30
2010,05,04,00,57,2.40
2010,05,04,00,58,6.40
2010,05,04,00,59,3.60
2010,05,04,01,00,5.90
2010,05,04,01,01,9.10
2010,05,04,01,02,6.00
2010,05,04,01,03,13.30
2010,05,04,01,04,8.00
2010,05,04,01,05,6.30
2010,05,04,01,06,2.80
2010,05,04,01,07,5.90
2010,05,04,01,08,4.50
2010,05,04,01,09,7.90
2010,05,04,01,10,3.00
2010,05,04,01,11,7.10
2010,05,04,01,12,7.70
2010,05,04,01,13,8.10
2010,05,04,01,14,7.20
2010,05,04,01,15,5.70
2010,05,04,01,16,4.80
2010,05,04,01,17,5.80
2010,05,04,01,18,7.40
2010,05,04,01,19,5.10
2010,05,04,01,20,8.60
2010,05,04,01,21,5.10
2010,05,04,01,22,1.70
2010,05,04,01,23,6.90
2010,05,04,01,24,6.60
2010,05,04,01,25,2.70
2010,05,04,01,26,3.80
2010,05,04,01,27,11.30
2010,05,04,01,28,1.40
2010,05,04,01,29,1.90
2010,05,04,01,30,2.30
2010,05,04,01,31,2.90
2010,05,04,01,32,10.80
2010,05,04,01,33,7.30
2010,05,04,01,34,6.40
2010,05,04,01,35,8.50
2010,05,04,01,36,6.90
2010,05,04,01,37,3.00
2010,05,04,01,38,1.90
2010,05,04,01,39,1.10
2010,05,04,01,40,3.80
2010,05,04,01,41,4.30
2010,05,04,01,42,6.10
2010,05,04,01,43,3.40
2010,05,04,01,44,2.30
2010,05,04,01,45,2.80
2010,05,04,01,46,3.60
2010,05,04,01,47,5.10
2010,05,04,01,48,3.90
2010,05,04,01,49,2.10
2010,05,04,01,50,5.50
2010,05,04,01,51,2.30
2010,05,04,01,52,3.20
2010,05,04,01,53,3.50
2010,05,04,01,54,3.60
2010,05,04,01,55,1.00
2010,05,04,01,56,1.30
2010,05,04,01,57,3.40
2010,05,04,01,58,5.40
2010,05,04,01,59,0.20
2010,05,04,02,00,3.30
2010,05,04,02,01,2.90
2010,05,04,02,02,4.10
2010,05,04,02,03,11.40
2010,05,04,02,04,6.10
2010,05,04,02,05,2.30
2010,05,04,02,06,3.30
2010,05,04,02,07,8.10
2010,05,04,02,08,4.30
2010,05,04,02,09,0.90
2010,05,04,02,10,2.30
2010,05,04,02,11,2.70
2010,05,04,02,12,2.20
2010,05,04,02,13,7.50
2010,05,04,02,14,3.00
2010,05,04,02,15,3.40
2010,05,04,02,16,3.10
2010,05,04,02,17,1.30
2010,05,04,02,18,7.50
2010,05,04,02,19,7.50
2010,05,04,02,20,2.50
2010,05,04,02,21,7.20
2010,05,04,02,22,4.40
2010,05,04,02,23,6.10
2010,05,04,02,24,6.70
2010,05,04,02,25,7.70
2010,05,04,02,26,4.30
2010,05,04,02,27,3.00
2010,05,04,02,28,4.70
2010,05,04,02,29,3.20
2010,05,04,02,30,2.50
2010,05,04,02,31,3.90
2010,05,04,02,32,6.90
2010,05,04,02,33,7.40
2010,05,04,02,34,3.30
2010,05,04,02,35,6.60
2010,05,04,02,36,9.70
2010,05,04,02,37,2.70
2010,05,04,02,38,5.30
2010,05,04,02,39,2.90
2010,05,04,02,40,1.60
2010,05,04,02,41,3.20
2010,05,04,02,42,7.80
2010,05,04,02,43,4.00
2010,05,04,02,44,2.10
2010,05,04,02,45,3.70
2010,05,04,02,46,5.20
2010,05,04,02,47,7.80
2010,05,04,02,48,3.10
2010,05,04,02,49,6.70
2010,05,04,02,50,5.30
2010,05,04,02,51,8.00
2010,05,04,02,52,7.20
2010,05,04,02,53,8.10
2010,05,04,02,54,5.50
2010,05,04,02,55,0.70
2010,05,04,02,56,5.40
2010,05,04,02,57,1.30
2010,05,04,02,58,1.90
2010,05,04,02,59,2.40
2010,05,04,03,00,4.60
2010,05,04,03,01,7.00
2010,05,04,03,02,2.10
2010,05,04,03,03,2.80
2010,05,04,03,04,4.60
2010,05,04,03,05,2.40
2010,05,04,03,06,1.20
2010,05,04,03,07,4.20
2010,05,04,03,08,4.40
2010,05,04,03,09,3.60
2010,05,04,03,10,4.60
2010,05,04,03,11,3.00
2010,05,04,03,12,5.50
2010,05,04,03,13,0.80
2010,05,04,03,14,5.40
2010,05,04,03,15,3.00
2010,05,04,03,16,2.20
2010,05,04,03,17,1.60
2010,05,04,03,18,0.10
2010,05,04,03,19,2.20
2010,05,04,03,20,1.70
2010,05,04,03,21,4.70
2010,05,04,03,22,6.80
2010,05,04,03,23,7.70
2010,05,04,03,24,3.30
2010,05,04,03,25,5.60
2010,05,04,03,26,3.50
2010,05,04,03,27,2.20
2010,05,04,03,28,3.50
2010,05,04,03,29,14.20
2010,05,04,03,30,7.30
2010,05,04,03,31,7.70
2010,05,04,03,32,4.00
2010,05,04,03,33,2.90
2010,05,04,03,34,5.20
2010,05,04,03,35,2.10
2010,05,04,03,36,4.40
2010,05,04,03,37,3.60
2010,05,04,03,38,3.20
2010,05,04,03,39,5.60
2010,05,04,03,40,3.30
2010,05,04,03,41,5.50
2010,05,04,03,42,4.30
2010,05,04,03,43,1.90
2010,05,04,03,44,3.10
2010,05,04,03,45,10.20
2010,05,04,03,46,4.80
2010,05,04,03,47,5.80
2010,05,04,03,48,6.30
2010,05,04,03,49,4.40
2010,05,04,03,50,2.30
2010,05,04,03,51,2.90
2010,05,04,03,52,5.60
2010,05,04,03,53,3.70
2010,05,04,03,54,3.10
2010,05,04,03,55,5.80
2010,05,04,03,56,4.60
2010,05,04,03,57,3.50
2010,05,04,03,58,3.20
2010,05,04,03,59,8.20
2010,05,04,04,00,6.00
2010,05,04,04,01,8.80
2010,05,04,04,02,13.30
2010,05,04,04,03,4.30
2010,05,04,04,13,2.30
2010,05,04,04,14,0.80
2010,05,04,04,15,5.40
2010,05,04,04,16,5.40
2010,05,04,04,17,7.70
2010,05,04,04,18,0.90
2010,05,04,04,19,1.40
2010,05,04,04,20,2.00
2010,05,04,04,21,7.50
2010,05,04,04,22,3.40
2010,05,04,04,23,3.90
2010,05,04,04,24,8.10
2010,05,04,04,25,6.40
2010,05,04,04,26,4.50
2010,05,04,04,27,3.50
2010,05,04,04,28,3.30
2010,05,04,04,29,4.50
2010,05,04,04,30,3.70
2010,05,04,04,31,5.60
2010,05,04,04,32,3.40
2010,05,04,04,33,1.70
2010,05,04,04,34,0.40
2010,05,04,04,35,0.80
2010,05,04,04,36,2.90
2010,05,04,04,37,2.20
2010,05,04,04,38,1.70
2010,05,04,04,39,1.10
2010,05,04,04,40,0.40
2010,05,04,04,41,3.60
2010,05,04,04,42,5.50
2010,05,04,04,43,0.80
2010,05,04,04,44,6.60
2010,05,04,04,45,5.20
2010,05,04,04,46,5.40
2010,05,04,04,47,2.60
2010,05,04,04,48,1.40
2010,05,04,04,49,1.40
2010,05,04,04,50,4.10
2010,05,04,04,51,7.10
2010,05,04,04,52,2.20
2010,05,04,04,53,2.20
2010,05,04,04,54,5.10
2010,05,04,04,55,3.50
2010,05,04,04,56,3.80
2010,05,04,04,57,6.90
2010,05,04,04,58,4.40
2010,05,04,04,59,4.80
2010,05,04,05,00,5.40
2010,05,04,05,01,5.30
2010,05,04,05,02,4.10
2010,05,04,05,03,7.60
2010,05,04,05,04,4.20
2010,05,04,05,05,5.10
2010,05,04,05,06,3.50
2010,05,04,05,07,4.00
2010,05,04,05,08,1.60
2010,05,04,05,09,2.50
2010,05,04,05,10,4.30
2010,05,04,05,11,1.10
2010,05,04,05,12,1.10
2010,05,04,05,13,0.30
2010,05,04,05,14,3.10
2010,05,04,05,15,1.90
2010,05,04,05,16,4.30
2010,05,04,05,17,2.80
2010,05,04,05,18,1.10
2010,05,04,05,19,2.50
2010,05,04,05,20,0.30
2010,05,04,05,21,0.40
2010,05,04,05,22,0.30
2010,05,04,05,23,1.00
2010,05,04,05,24,6.00
2010,05,04,05,25,1.60
2010,05,04,05,26,1.30
2010,05,04,05,27,0.00
2010,05,04,05,28,0.40
2010,05,04,05,29,0.40
2010,05,04,05,30,0.30
2010,05,04,05,31,0.10
2010,05,04,05,32,0.00
2010,05,04,05,33,0.00
2010,05,04,05,34,0.00
2010,05,04,05,35,4.90
2010,05,04,05,36,1.60
2010,05,04,05,37,0.60
2010,05,04,05,38,1.10
2010,05,04,05,39,1.80
2010,05,04,05,40,1.50
2010,05,04,05,41,1.00
2010,05,04,05,42,1.80
2010,05,04,05,43,2.70
2010,05,04,05,44,1.40
2010,05,04,05,45,3.20
2010,05,04,05,46,1.20
2010,05,04,05,47,4.30
2010,05,04,05,48,1.20
2010,05,04,05,49,2.10
2010,05,04,05,50,2.60
2010,05,04,05,51,1.90
2010,05,04,05,52,5.20
2010,05,04,05,53,8.70
2010,05,04,05,54,7.90
2010,05,04,05,55,6.80
2010,05,04,05,56,4.90
2010,05,04,05,57,5.10
2010,05,04,05,58,5.50
2010,05,04,05,59,7.50
2010,05,04,06,00,3.20
2010,05,04,06,01,0.50
2010,05,04,06,02,9.00
2010,05,04,06,03,4.30
2010,05,04,06,04,13.70
2010,05,04,06,05,3.00
2010,05,04,06,06,1.00
2010,05,04,06,07,2.00
2010,05,04,06,08,3.60
2010,05,04,06,09,2.40
2010,05,04,06,10,2.90
2010,05,04,06,11,3.80
2010,05,04,06,12,0.20
2010,05,04,06,13,3.70
2010,05,04,06,14,0.00
2010,05,04,06,15,1.70
2010,05,04,06,16,1.50
2010,05,04,06,17,0.60
2010,05,04,06,18,0.10
2010,05,04,06,19,1.10
2010,05,04,06,20,4.20
2010,05,04,06,21,0.40
2010,05,04,06,22,1.60
2010,05,04,06,23,0.10
2010,05,04,06,24,0.20
2010,05,04,06,25,0.80
2010,05,04,06,26,0.10
2010,05,04,06,27,0.60
2010,05,04,06,28,0.30
2010,05,04,06,29,0.00
2010,05,04,06,30,0.80
2010,05,04,06,31,1.00
2010,05,04,06,32,0.60
2010,05,04,06,33,0.00
2010,05,04,06,34,0.80
2010,05,04,06,35,0.10
2010,05,04,06,36,0.00
2010,05,04,06,37,1.70
2010,05,04,06,38,3.40
2010,05,04,06,39,3.30
2010,05,04,06,40,5.30
2010,05,04,06,41,4.40
2010,05,04,06,42,1.10
2010,05,04,06,43,0.90
2010,05,04,06,44,0.60
2010,05,04,06,45,1.50
2010,05,04,06,46,3.40
2010,05,04,06,47,0.40
2010,05,04,06,48,2.40
2010,05,04,06,49,0.50
2010,05,04,06,50,0.30
2010,05,04,06,51,0.00
2010,05,04,06,52,2.20
2010,05,04,06,53,0.20
2010,05,04,06,54,0.50
2010,05,04,06,55,2.90
2010,05,04,06,56,1.20
2010,05,04,06,57,0.30
2010,05,04,06,58,2.30
2010,05,04,06,59,0.50
2010,05,04,07,00,2.20
2010,05,04,07,01,0.00
2010,05,04,07,02,0.20
2010,05,04,07,03,0.00
2010,05,04,07,04,0.20
2010,05,04,07,05,0.30
2010,05,04,07,06,1.10
2010,05,04,07,07,0.30
2010,05,04,07,08,1.40
2010,05,04,07,09,1.50
2010,05,04,07,10,1.90
2010,05,04,07,11,2.50
2010,05,04,07,12,2.80
2010,05,04,07,13,1.70
2010,05,04,07,14,0.50
2010,05,04,07,15,0.70
2010,05,04,07,16,4.20
2010,05,04,07,17,3.60
2010,05,04,07,18,6.70
2010,05,04,07,19,5.20
2010,05,04,07,20,2.80
2010,05,04,07,21,0.80
2010,05,04,07,22,6.50
2010,05,04,07,23,0.90
2010,05,04,07,24,3.40
2010,05,04,07,25,1.20
2010,05,04,07,26,8.20
2010,05,04,07,27,4.30
2010,05,04,07,28,5.00
2010,05,04,07,29,0.40
2010,05,04,07,30,2.80
2010,05,04,07,31,1.40
2010,05,04,07,32,2.40
2010,05,04,07,33,1.40
2010,05,04,07,34,0.10
2010,05,04,07,35,0.80
2010,05,04,07,36,0.90
2010,05,04,07,37,2.60
2010,05,04,07,38,6.90
2010,05,04,07,39,4.60
2010,05,04,07,40,3.20
2010,05,04,07,41,8.20
2010,05,04,07,42,4.80
2010,05,04,07,43,0.30
2010,05,04,07,44,1.40
2010,05,04,07,45,2.90
2010,05,04,07,46,3.10
2010,05,04,07,47,1.20
2010,05,04,07,48,2.50
2010,05,04,07,49,2.80
2010,05,04,07,50,7.20
2010,05,04,07,51,8.60
2010,05,04,07,52,10.60
2010,05,04,07,53,7.30
2010,05,04,07,54,2.10
2010,05,04,07,55,2.50
2010,05,04,07,56,2.20
2010,05,04,07,57,3.10
2010,05,04,07,58,6.50
2010,05,04,07,59,3.80
2010,05,04,08,00,3.20
2010,05,04,08,01,1.50
2010,05,04,08,02,6.10
2010,05,04,08,03,4.50
2010,05,04,08,04,1.30
2010,05,04,08,05,0.20
2010,05,04,08,06,4.90
2010,05,04,08,07,3.00
2010,05,04,08,08,7.10
2010,05,04,08,09,4.00
2010,05,04,08,10,6.40
2010,05,04,08,11,7.20
2010,05,04,08,12,4.30
2010,05,04,08,13,8.20
2010,05,04,08,14,9.50
2010,05,04,08,15,3.80
2010,05,04,08,16,3.00
2010,05,04,08,17,6.70
2010,05,04,08,18,4.60
2010,05,04,08,19,5.40
2010,05,04,08,20,7.40
2010,05,04,08,21,3.80
2010,05,04,08,22,0.50
2010,05,04,08,23,1.90
2010,05,04,08,24,10.70
2010,05,04,08,25,3.00
2010,05,04,08,26,2.50
2010,05,04,08,27,1.80
2010,05,04,08,28,2.00
2010,05,04,08,29,1.80
2010,05,04,08,30,0.90
2010,05,04,08,31,7.20
2010,05,04,08,32,5.90
2010,05,04,08,33,5.40
2010,05,04,08,34,3.00
2010,05,04,08,35,7.30
2010,05,04,08,36,3.40
2010,05,04,08,37,5.80
2010,05,04,08,38,0.90
2010,05,04,08,39,1.70
2010,05,04,08,40,7.40
2010,05,04,08,41,4.20
2010,05,04,08,42,5.80
2010,05,04,08,43,3.10
2010,05,04,08,44,3.50
2010,05,04,08,45,0.70
2010,05,04,08,46,2.50
2010,05,04,08,47,9.70
2010,05,04,08,48,5.50
2010,05,04,08,49,1.10
2010,05,04,08,50,0.40
2010,05,04,08,51,1.30
2010,05,04,08,52,4.00
2010,05,04,08,53,1.80
2010,05,04,08,54,1.30
2010,05,04,08,55,0.50
2010,05,04,08,56,1.80
2010,05,04,08,57,0.80
2010,05,04,08,58,4.60
2010,05,04,08,59,2.10
2010,05,04,09,00,1.00
2010,05,04,09,01,2.90
2010,05,04,09,02,5.90
2010,05,04,09,03,2.30
2010,05,04,09,04,5.60
2010,05,04,09,05,3.40
2010,05,04,09,06,2.70
2010,05,04,09,07,4.80
2010,05,04,09,08,5.10
2010,05,04,09,09,4.50
2010,05,04,09,10,2.70
2010,05,04,09,11,7.30
2010,05,04,09,12,5.00
2010,05,04,09,13,16.70
2010,05,04,09,14,10.50
2010,05,04,09,15,7.40
2010,05,04,09,16,5.80
2010,05,04,09,17,10.70
2010,05,04,09,18,7.10
2010,05,04,09,19,1.40
2010,05,04,09,20,6.80
2010,05,04,09,21,4.40
2010,05,04,09,22,10.60
2010,05,04,09,23,3.10
2010,05,04,09,24,3.80
2010,05,04,09,25,5.80
2010,05,04,09,26,3.60
2010,05,04,09,27,15.60
2010,05,04,09,28,5.80
2010,05,04,09,29,6.50
2010,05,04,09,30,11.30
2010,05,04,09,31,6.40
2010,05,04,09,32,4.70
2010,05,04,09,33,3.70
2010,05,04,09,34,3.50
2010,05,04,09,35,3.60
2010,05,04,09,36,3.60
2010,05,04,09,37,6.90
2010,05,04,09,38,4.60
2010,05,04,09,39,12.80
2010,05,04,09,40,10.80
2010,05,04,09,41,5.20
2010,05,04,09,42,3.10
2010,05,04,09,43,12.60
2010,05,04,09,44,13.50
2010,05,04,09,45,11.60
2010,05,04,09,46,7.30
2010,05,04,09,47,0.40
2010,05,04,09,48,5.30
2010,05,04,09,49,5.60
2010,05,04,09,50,3.50
2010,05,04,09,51,7.90
2010,05,04,09,52,14.50
2010,05,04,09,53,11.70
2010,05,04,09,54,7.40
2010,05,04,09,55,13.30
2010,05,04,09,56,4.60
2010,05,04,09,57,7.40
2010,05,04,09,58,6.70
2010,05,04,09,59,4.00
2010,05,04,10,00,3.30
2010,05,04,10,01,3.40
2010,05,04,10,02,9.20
2010,05,04,10,03,7.40
2010,05,04,10,04,10.50
2010,05,04,10,05,6.40
2010,05,04,10,06,2.10
2010,05,04,10,07,3.20
2010,05,04,10,08,2.10
2010,05,04,10,09,6.60
2010,05,04,10,10,6.90
2010,05,04,10,11,12.00
2010,05,04,10,12,8.80
2010,05,04,10,13,8.20
2010,05,04,10,14,8.60
2010,05,04,10,15,9.20
2010,05,04,10,16,3.70
2010,05,04,10,17,5.30
2010,05,04,10,18,10.10
2010,05,04,10,19,11.90
2010,05,04,10,20,13.00
2010,05,04,10,21,8.70
2010,05,04,10,22,8.60
2010,05,04,10,23,11.40
2010,05,04,10,24,9.30
2010,05,04,10,25,15.20
2010,05,04,10,26,16.80
2010,05,04,10,27,12.50
2010,05,04,10,28,14.80
2010,05,04,10,29,7.10
2010,05,04,10,30,7.90
2010,05,04,10,31,10.20
2010,05,04,10,32,4.70
2010,05,04,10,33,9.40
2010,05,04,10,34,13.20
2010,05,04,10,35,7.40
2010,05,04,10,36,12.80
2010,05,04,10,37,6.20
2010,05,04,10,38,5.30
2010,05,04,10,39,5.40
2010,05,04,10,40,3.60
2010,05,04,10,41,3.60
2010,05,04,10,42,7.10
2010,05,04,10,43,9.70
2010,05,04,10,44,5.10
2010,05,04,10,45,6.80
2010,05,04,10,46,7.40
2010,05,04,10,47,9.30
2010,05,04,10,48,13.00
2010,05,04,10,49,12.00
2010,05,04,10,50,9.90
2010,05,04,10,51,7.10
2010,05,04,10,52,5.30
2010,05,04,10,53,5.20
2010,05,04,10,54,5.20
2010,05,04,10,55,4.60
2010,05,04,10,56,6.30
2010,05,04,10,57,12.70
2010,05,04,10,58,8.30
2010,05,04,10,59,12.20
2010,05,04,11,00,10.70
2010,05,04,11,01,10.00
2010,05,04,11,02,12.30
2010,05,04,11,03,12.90
2010,05,04,11,04,8.30
2010,05,04,11,05,7.50
2010,05,04,11,06,13.10
2010,05,04,11,07,3.70
2010,05,04,11,08,3.50
2010,05,04,11,09,9.00
2010,05,04,11,10,9.50
2010,05,04,11,11,8.10
2010,05,04,11,12,8.10
2010,05,04,11,13,8.10
2010,05,04,11,14,8.10
2010,05,04,11,15,8.10
2010,05,04,11,16,6.20
2010,05,04,11,17,4.60
2010,05,04,11,18,2.70
2010,05,04,11,19,3.70
2010,05,04,11,20,8.40
2010,05,04,11,21,11.80
2010,05,04,11,22,12.90
2010,05,04,11,23,11.90
2010,05,04,11,24,7.00
2010,05,04,11,25,12.30
2010,05,04,11,26,9.70
2010,05,04,11,27,5.80
2010,05,04,11,28,8.60
2010,05,04,11,29,7.80
2010,05,04,11,30,6.00
2010,05,04,11,31,3.70
2010,05,04,11,32,1.10
2010,05,04,11,33,5.00
2010,05,04,11,34,4.40
2010,05,04,11,35,10.30
2010,05,04,11,36,8.50
2010,05,04,11,37,5.90
2010,05,04,11,38,8.00
2010,05,04,11,39,11.20
2010,05,04,11,40,4.80
2010,05,04,11,41,6.40
2010,05,04,11,42,4.20
2010,05,04,11,43,5.40
2010,05,04,11,44,3.10
2010,05,04,11,45,1.40
2010,05,04,11,46,2.80
2010,05,04,11,47,3.10
2010,05,04,11,48,4.10
2010,05,04,11,49,6.20
2010,05,04,11,50,7.80
2010,05,04,11,51,6.10
2010,05,04,11,52,5.10
2010,05,04,11,53,10.80
2010,05,04,11,54,11.90
2010,05,04,11,55,8.30
2010,05,04,11,56,5.80
2010,05,04,11,57,7.80
2010,05,04,11,58,10.50
2010,05,04,11,59,13.70
2010,05,04,12,00,8.10
2010,05,04,12,01,4.00
2010,05,04,12,02,5.40
2010,05,04,12,03,3.80
2010,05,04,12,04,6.40
2010,05,04,12,05,10.20
2010,05,04,12,06,6.40
2010,05,04,12,07,7.70
2010,05,04,12,08,5.20
2010,05,04,12,09,6.90
2010,05,04,12,10,6.60
2010,05,04,12,11,5.20
2010,05,04,12,12,5.00
2010,05,04,12,13,7.80
2010,05,04,12,14,5.40
2010,05,04,12,15,4.40
2010,05,04,12,16,8.50
2010,05,04,12,17,5.50
2010,05,04,12,18,11.60
2010,05,04,12,19,10.60
2010,05,04,12,20,7.50
2010,05,04,12,21,7.60
2010,05,04,12,22,8.60
2010,05,04,12,23,9.50
2010,05,04,12,24,7.20
2010,05,04,12,25,9.00
2010,05,04,12,26,9.90
2010,05,04,12,27,3.60
2010,05,04,12,28,10.10
2010,05,04,12,29,9.80
2010,05,04,12,30,7.60
2010,05,04,12,31,9.00
2010,05,04,12,32,4.50
2010,05,04,12,33,8.30
2010,05,04,12,34,7.20
2010,05,04,12,35,11.40
2010,05,04,12,36,14.80
2010,05,04,12,37,13.00
2010,05,04,12,38,5.70
2010,05,04,12,39,4.40
2010,05,04,12,40,9.00
2010,05,04,12,41,10.00
2010,05,04,12,42,6.10
2010,05,04,12,43,7.50
2010,05,04,12,44,10.40
2010,05,04,12,45,8.80
2010,05,04,12,46,12.40
2010,05,04,12,47,11.00
2010,05,04,12,48,9.60
2010,05,04,12,49,4.10
2010,05,04,12,50,8.40
2010,05,04,12,51,7.80
2010,05,04,12,52,7.40
2010,05,04,12,53,6.10
2010,05,04,12,54,3.80
2010,05,04,12,55,1.10
2010,05,04,12,56,9.40
2010,05,04,12,57,8.60
2010,05,04,12,58,11.30
2010,05,04,12,59,5.50
2010,05,04,13,00,5.90
2010,05,04,13,01,7.70
2010,05,04,13,02,7.10
2010,05,04,13,03,9.60
2010,05,04,13,04,15.80
2010,05,04,13,05,16.40
2010,05,04,13,06,14.10
2010,05,04,13,07,7.00
2010,05,04,13,08,10.00
2010,05,04,13,09,6.00
2010,05,04,13,10,8.50
2010,05,04,13,11,4.50
2010,05,04,13,12,8.00
2010,05,04,13,13,13.90
2010,05,04,13,14,8.50
2010,05,04,13,15,9.30
2010,05,04,13,16,12.00
2010,05,04,13,17,12.60
2010,05,04,13,18,4.70
2010,05,04,13,19,8.30
2010,05,04,13,20,6.70
2010,05,04,13,21,5.90
2010,05,04,13,22,3.70
2010,05,04,13,23,10.00
2010,05,04,13,24,10.00
2010,05,04,13,25,4.90
2010,05,04,13,26,6.20
2010,05,04,13,27,12.50
2010,05,04,13,28,9.30
2010,05,04,13,29,12.70
2010,05,04,13,30,18.50
2010,05,04,13,31,11.30
2010,05,04,13,32,9.50
2010,05,04,13,33,7.80
2010,05,04,13,34,10.20
2010,05,04,13,35,8.50
2010,05,04,13,36,10.60
2010,05,04,13,37,1.80
2010,05,04,13,38,9.70
2010,05,04,13,39,14.70
2010,05,04,13,40,12.00
2010,05,04,13,41,12.60
2010,05,04,13,42,8.10
2010,05,04,13,43,4.70
2010,05,04,13,44,3.80
2010,05,04,13,45,4.90
2010,05,04,13,46,3.30
2010,05,04,13,47,3.30
2010,05,04,13,48,2.60
2010,05,04,13,49,6.40
2010,05,04,13,50,6.30
2010,05,04,13,51,6.60
2010,05,04,13,52,8.90
2010,05,04,13,53,7.00
2010,05,04,13,54,7.40
2010,05,04,13,55,7.70
2010,05,04,13,56,8.90
2010,05,04,13,57,9.60
2010,05,04,13,58,7.80
2010,05,04,13,59,4.80
2010,05,04,14,00,8.30
2010,05,04,14,01,5.60
2010,05,04,14,02,4.40
2010,05,04,14,03,10.80
2010,05,04,14,04,3.80
2010,05,04,14,05,5.70
2010,05,04,14,06,8.20
2010,05,04,14,07,2.30
2010,05,04,14,08,2.30
2010,05,04,14,09,2.60
2010,05,04,14,10,4.10
2010,05,04,14,11,12.00
2010,05,04,14,12,8.50
2010,05,04,14,13,8.40
2010,05,04,14,14,4.30
2010,05,04,14,15,5.60
2010,05,04,14,16,9.40
2010,05,04,14,17,8.40
2010,05,04,14,18,5.50
2010,05,04,14,19,4.50
2010,05,04,14,20,5.10
2010,05,04,14,21,6.40
2010,05,04,14,22,6.50
2010,05,04,14,23,14.00
2010,05,04,14,24,18.00
2010,05,04,14,25,16.10
2010,05,04,14,26,9.60
2010,05,04,14,27,9.60
2010,05,04,14,28,16.60
2010,05,04,14,29,11.10
2010,05,04,14,30,6.90
2010,05,04,14,31,7.90
2010,05,04,14,32,8.20
2010,05,04,14,33,12.80
2010,05,04,14,34,13.70
2010,05,04,14,35,11.40
2010,05,04,14,36,15.00
2010,05,04,14,37,10.40
2010,05,04,14,38,13.10
2010,05,04,14,39,12.70
2010,05,04,14,40,17.50
2010,05,04,14,41,9.50
2010,05,04,14,42,16.90
2010,05,04,14,43,8.50
2010,05,04,14,44,12.30
2010,05,04,14,45,11.50
2010,05,04,14,46,8.50
2010,05,04,14,47,5.80
2010,05,04,14,48,6.30
2010,05,04,14,49,13.60
2010,05,04,14,50,17.20
2010,05,04,14,51,11.10
2010,05,04,14,52,6.40
2010,05,04,14,53,7.20
2010,05,04,14,54,12.00
2010,05,04,14,55,11.40
2010,05,04,14,56,13.30
2010,05,04,14,57,10.90
2010,05,04,14,58,9.40
2010,05,04,14,59,10.50
2010,05,04,15,00,8.90
2010,05,04,15,01,14.60
2010,05,04,15,02,7.10
2010,05,04,15,03,15.80
2010,05,04,15,04,14.30
2010,05,04,15,05,9.60
2010,05,04,15,06,13.30
2010,05,04,15,07,13.40
2010,05,04,15,08,11.80
2010,05,04,15,09,13.70
2010,05,04,15,10,13.40
2010,05,04,15,11,16.80
2010,05,04,15,12,16.30
2010,05,04,15,13,9.10
2010,05,04,15,14,8.00
2010,05,04,15,15,8.60
2010,05,04,15,16,14.20
2010,05,04,15,17,8.50
2010,05,04,15,18,9.40
2010,05,04,15,19,13.40
2010,05,04,15,20,5.30
2010,05,04,15,21,7.90
2010,05,04,15,22,8.10
2010,05,04,15,23,9.60
2010,05,04,15,24,8.60
2010,05,04,15,25,14.40
2010,05,04,15,26,17.00
2010,05,04,15,27,18.20
2010,05,04,15,28,15.40
2010,05,04,15,29,13.80
2010,05,04,15,30,12.00
2010,05,04,15,31,17.30
2010,05,04,15,32,15.90
2010,05,04,15,33,20.30
2010,05,04,15,34,15.70
2010,05,04,15,35,13.10
2010,05,04,15,36,12.00
2010,05,04,15,37,16.90
2010,05,04,15,38,14.60
2010,05,04,15,39,9.40
2010,05,04,15,40,9.70
2010,05,04,15,41,10.90
2010,05,04,15,42,9.10
2010,05,04,15,43,5.70
2010,05,04,15,44,7.80
2010,05,04,15,45,7.70
2010,05,04,15,46,11.50
2010,05,04,15,47,5.30
2010,05,04,15,48,12.30
2010,05,04,15,49,5.90
2010,05,04,15,50,8.70
2010,05,04,15,51,8.90
2010,05,04,15,52,8.80
2010,05,04,15,53,8.50
2010,05,04,15,54,4.30
2010,05,04,15,55,7.30
2010,05,04,15,56,10.60
2010,05,04,15,57,7.40
2010,05,04,15,58,5.60
2010,05,04,15,59,9.80
2010,05,04,16,00,5.80
2010,05,04,16,01,14.60
2010,05,04,16,02,18.60
2010,05,04,16,03,10.80
2010,05,04,16,04,10.30
2010,05,04,16,05,7.10
2010,05,04,16,06,8.80
2010,05,04,16,07,11.10
2010,05,04,16,08,9.20
2010,05,04,16,09,15.00
2010,05,04,16,10,15.60
2010,05,04,16,11,19.00
2010,05,04,16,12,8.40
2010,05,04,16,13,13.60
2010,05,04,16,14,10.90
2010,05,04,16,15,7.90
2010,05,04,16,16,4.90
2010,05,04,16,17,7.40
2010,05,04,16,18,11.20
2010,05,04,16,19,10.60
2010,05,04,16,20,9.80
2010,05,04,16,21,7.00
2010,05,04,16,22,14.70
2010,05,04,16,23,12.80
2010,05,04,16,24,12.20
2010,05,04,16,25,9.40
2010,05,04,16,26,6.60
2010,05,04,16,27,5.80
2010,05,04,16,28,4.50
2010,05,04,16,29,13.10
2010,05,04,16,30,8.60
2010,05,04,16,31,11.00
2010,05,04,16,32,8.70
2010,05,04,16,33,11.90
2010,05,04,16,34,2.10
2010,05,04,16,35,1.40
2010,05,04,16,36,6.50
2010,05,04,16,37,10.20
2010,05,04,16,38,3.10
2010,05,04,16,39,8.70
2010,05,04,16,40,6.00
2010,05,04,16,41,4.00
2010,05,04,16,42,6.80
2010,05,04,16,43,8.50
2010,05,04,16,44,10.50
2010,05,04,16,45,8.90
2010,05,04,16,46,12.40
2010,05,04,16,47,11.10
2010,05,04,16,48,5.70
2010,05,04,16,49,6.30
2010,05,04,16,50,10.20
2010,05,04,16,51,11.00
2010,05,04,16,52,11.90
2010,05,04,16,53,9.80
2010,05,04,16,54,5.80
2010,05,04,16,55,9.70
2010,05,04,16,56,7.10
2010,05,04,16,57,10.20
2010,05,04,16,58,9.10
2010,05,04,16,59,8.00
2010,05,04,17,00,8.00
2010,05,04,17,01,8.50
2010,05,04,17,02,4.20
2010,05,04,17,03,4.80
2010,05,04,17,04,6.10
2010,05,04,17,05,5.60
2010,05,04,17,06,4.90
2010,05,04,17,07,6.50
2010,05,04,17,08,6.20
2010,05,04,17,09,3.40
2010,05,04,17,10,6.50
2010,05,04,17,11,9.60
2010,05,04,17,12,9.40
2010,05,04,17,13,6.40
2010,05,04,17,14,4.80
2010,05,04,17,15,4.40
2010,05,04,17,16,4.60
2010,05,04,17,17,2.80
2010,05,04,17,18,2.80
2010,05,04,17,19,4.30
2010,05,04,17,20,6.50
2010,05,04,17,21,4.70
2010,05,04,17,22,5.30
2010,05,04,17,23,5.90
2010,05,04,17,24,4.10
2010,05,04,17,25,3.30
2010,05,04,17,26,1.10
2010,05,04,17,27,4.80
2010,05,04,17,28,4.30
2010,05,04,17,29,3.90
2010,05,04,17,30,7.90
2010,05,04,17,31,5.10
2010,05,04,17,32,6.00
2010,05,04,17,33,6.50
2010,05,04,17,34,4.00
2010,05,04,17,35,6.60
2010,05,04,17,36,7.10
2010,05,04,17,37,5.30
2010,05,04,17,38,2.40
2010,05,04,17,39,3.60
2010,05,04,17,40,2.60
2010,05,04,17,41,1.30
2010,05,04,17,42,4.40
2010,05,04,17,43,4.90
2010,05,04,17,44,2.60
2010,05,04,17,45,7.40
2010,05,04,17,46,6.90
2010,05,04,17,47,2.10
2010,05,04,17,48,1.50
2010,05,04,17,49,4.40
2010,05,04,17,50,2.80
2010,05,04,17,51,2.60
2010,05,04,17,52,2.40
2010,05,04,17,53,1.60
2010,05,04,17,54,0.70
2010,05,04,17,55,4.20
2010,05,04,17,56,6.00
2010,05,04,17,57,6.70
2010,05,04,17,58,2.30
2010,05,04,17,59,2.70
2010,05,04,18,00,4.10
2010,05,04,18,01,5.50
2010,05,04,18,02,1.30
2010,05,04,18,03,1.50
2010,05,04,18,04,2.40
2010,05,04,18,05,5.10
2010,05,04,18,06,2.90
2010,05,04,18,07,5.00